STARLINK-31820, 59725

Orbit data source: Space-Track

STARLINK-31820, 59725 is a payload satellite owned by SpaceX/Seattle (US) in LEO that was launched on Fri, 10 May 2024 UTC via an FALCON 9 launch vehicle from the Air Force Western Test Range (AFWTR). Payload-class satellites include a variety of spacecraft equipped with specific instruments for various scientific and technological missions. These include communications satellites like Starlink; space stations such as the ISS; scientific satellites like the Hubble; Earth observation satellites from companies like Planet Labs, Umbra, and HawkEye 360; GPS; miniature CubeSats for education and research; and military/defense satellites.

Loading next visibility...
Identifier
59725, 2024-088T
Orbit
LEO
Country
Flag of USUS
Related business
Manufacturer
SpaceX/Seattle
Mission
Operational Commercial Communications
Bus & Motor
STARLINK V2M, Unknown motor
Mass
730 kg wet, ~700 kg dry
Launch date (UTC)
2024-05-10 (2 years ago)
Launch vehicle
FALCON 9
Launch site
Air Force Western Test Range (AFWTR)
Object type
Payload
Rocket body
Debris
Shape & HBR
Box + 2 Pan, 17.7 m
Radar Cross Section
33.884 m², Large (>1 m²)

Expand to show TLE details & history
Last TLE update: 13 hours ago

TLE from 13 hours ago
0 STARLINK-31820
1 59725U 24088T   25346.85120255  .00009513  00000-0  33229-3 0  9998
2 59725  53.1611 183.4921 0001256 100.1861 259.9282 15.30260602 90388
Epoch: 2025-12-12T20:25Z
TLE epoch observation values (Epoch: 2025-12-12T20:25:43.900Z)
Latitude
0.00003°
Longitude
155.27231°
Altitude
476.085 km
Speed
7.629 km/s
True Right ascension
12h 13m 58s
True Declination
0° 00' 00"
Sunlit
Object was in daylight at epoch
Visualization orbit readout
Latitude
Unknown
Longitude
Unknown
Altitude
Unknown
Speed
Unknown
Apparent Right ascension
Unknown
Apparent Declination
Unknown
Sunlit
N/A
Visualization observer readout
Local Sidereal Time
07:27:34
Azimuth
Unknown
Elevation
Unknown
Doppler factor
Unknown
Orbital elements
Apogee altitude
476.151 km
Perigee altitude
474.43 km
Semi-major axis
6,853.427 km
Eccentricity
0.00013
Inclination
53.1611°
RAAN
183.4921°
Arg. of periapsis
100.1861°
True anomaly
259.91403°
Mean anomaly
259.9282°
Eccentric anomaly
259.92111°
Mean motion
3.82544 °/min
Orbital period
94.11 mins
BSTAR
0.00033229
Loading maneuver chart data...
Computing Atmospheric mass density...
Loading historical data...
Loading historical data...
Loading historical data...
Loading historical data...
Loading historical data...
Loading historical data...
Loading historical data...

Documentation

Showing up to 5 results
|